Temp
46 45 44 44 44 43 43 43 43 41 41 41 40 40 39 39 36 37 37 37 37 37 36 36 36 36 36 37 38 38 39 37 37 37 37 37 36 35 34 34 35 36
45 44 44 44 44 44 44 44 43 42 41 40 41 40 39 37 36 36 36 36 36 36 35 36 36 36 36 37 37 37 36 36 35 35 35 35 35 35 34 34 34 34
44 43 43 43 43 43 43 43 42 42 41 40 39 39 37 36 35 36 36 36 35 35 35 35 36 36 36 36 36 37 36 35 34 34 35 34 35 34 33 33 33 34
44 44 43 43 44 43 43 41 40 40 38 37 38 37 36 35 35 35 35 34 35 34 34 35 35 35 35 35 36 37 36 36 35 35 34 34 34 33 33 33 32 32
43 43 43 43 43 42 41 40 40 39 38 37 36 36 36 35 34 34 34 34 34 34 34 34 34 34 35 35 36 35 35 34 33 34 34 33 33 33 32 33 32 31
42 43 43 43 42 41 40 40 40 39 38 36 36 36 36 35 35 34 34 34 34 34 34 34 34 34 35 35 35 35 34 34 33 34 33 32 32 32 32 32 32 31
41 41 41 41 40 40 40 40 39 38 38 36 35 35 35 34 34 34 34 34 34 34 34 34 33 33 34 35 35 34 33 33 33 33 32 31 31 31 31 32 32 31
41 41 41 40 40 39 39 39 38 38 36 34 35 35 35 35 35 34 34 34 34 33 33 33 33 33 33 34 34 32 31 31 32 32 31 30 30 29 30 29 30 29
40 40 40 39 39 39 39 38 38 36 35 35 35 34 34 35 34 34 34 34 34 33 33 33 33 33 33 33 32 32 32 31 31 31 30 29 29 29 28 28 28 29
40 40 39 39 39 39 39 38 37 35 34 35 35 34 34 34 34 34 33 34 33 33 33 33 32 32 32 33 33 33 32 31 31 31 31 30 30 29 28 28 28 28
40 40 39 39 39 39 38 37 35 34 34 35 34 33 33 33 33 33 33 33 33 33 33 33 33 33 32 32 33 33 33 31 31 30 30 30 30 29 28 28 28 28
40 39 39 39 39 39 38 36 35 34 34 34 34 33 32 33 33 33 33 34 34 33 33 33 33 33 33 32 32 32 32 31 31 31 30 30 30 29 29 29 28 29
40 39 39 39 38 38 37 36 34 34 34 33 33 33 32 32 33 33 33 34 34 34 34 33 33 33 33 32 31 31 31 31 31 31 30 29 29 29 29 29 29 29
40 40 39 39 38 38 36 35 34 33 34 34 33 33 33 33 33 33 34 34 34 34 34 33 33 32 32 32 32 32 31 31 31 30 30 29 28 28 28 28 29 29
39 39 39 38 37 36 35 34 34 34 34 34 33 34 34 34 34 34 33 33 33 33 33 33 32 32 32 32 31 31 31 31 30 30 30 28 28 27 28 28 28 28
39 38 38 37 36 35 34 34 34 34 33 33 33 33 34 33 33 33 33 33 32 32 32 32 32 32 31 33 33 31 31 30 30 29 29 29 28 27 27 27 27 28
38 37 37 35 35 35 34 33 33 33 32 31 31 31 32 32 32 32 32 33 32 32 31 31 32 32 33 35 35 34 31 30 29 28 29 29 29 28 27 26 26 27
37 36 36 35 35 34 33 32 32 32 31 31 31 31 31 31 31 32 32 32 32 31 31 31 31 32 35 35 36 35 32 30 29 28 28 28 29 28 28 28 27 26
36 36 35 34 34 33 33 32 31 31 30 30 30 31 30 29 31 31 31 31 31 31 30 30 30 33 35 36 36 36 35 31 28 28 27 28 29 29 28 28 27 26
35 34 34 34 34 33 32 31 31 30 30 31 31 30 29 29 29 30 30 30 30 31 30 30 30 33 36 36 36 36 35 33 28 27 27 28 29 29 28 28 28 27
34 34 34 33 33 32 32 31 31 30 30 30 30 29 29 29 29 29 28 28 28 29 30 29 29 34 35 36 36 36 36 35 29 27 27 27 28 29 28 29 29 28
33 32 32 32 32 31 31 31 30 30 29 30 30 30 29 29 29 28 28 27 28 27 28 27 28 34 35 36 36 36 36 33 31 28 27 27 27 28 29 29 29 28
33 32 32 31 31 30 30 30 29 29 29 30 29 29 29 28 28 28 28 27 26 26 26 27 27 32 35 35 35 36 35 32 32 30 28 27 27 28 29 29 29 28
32 31 30 30 30 30 30 30 30 30 29 29 29 28 28 27 27 27 27 27 26 26 26 26 26 30 34 34 35 35 34 31 31 31 29 29 28 29 29 29 28 27
31 31 30 30 30 31 30 29 29 29 29 29 29 28 28 27 27 27 26 26 27 27 28 27 26 28 33 34 34 34 33 31 31 31 30 29 29 28 29 28 28 27
31 31 31 31 31 30 30 30 30 28 28 28 28 28 28 28 27 28 26 26 26 26 26 27 26 26 29 33 33 34 34 32 31 31 29 29 29 29 29 29 28 26
MSLP
1022.71 1023.05 1023.27 1023.61 1023.83 1023.95 1024.09 1024.33 1024.67 1024.67 1024.93 1025.47 1025.51 1026.07 1026.55 1026.99 1027.53 1027.87 1027.93 1028.09 1028.21 1028.23 1028.47 1028.69 1028.85 1029.01 1029.23 1029.41 1029.57 1029.71 1029.95 1030.21 1030.47 1030.61 1030.61 1030.59 1030.81 1030.87 1031.13 1031.59 1031.85 1032.01
1022.67 1022.99 1023.27 1023.51 1023.71 1023.99 1024.13 1024.23 1024.33 1024.35 1024.75 1025.35 1025.51 1025.87 1026.49 1026.97 1027.47 1027.81 1027.93 1028.13 1028.37 1028.53 1028.71 1028.85 1028.97 1029.09 1029.27 1029.43 1029.67 1029.77 1030.19 1030.47 1030.69 1030.99 1030.85 1030.91 1031.23 1031.43 1031.71 1032.01 1032.25 1032.59
1022.65 1022.99 1023.23 1023.43 1023.55 1023.73 1023.97 1024.23 1024.61 1024.77 1024.77 1025.21 1025.63 1025.97 1026.43 1026.89 1027.35 1027.83 1028.05 1028.19 1028.43 1028.73 1028.93 1028.99 1029.09 1029.27 1029.41 1029.61 1029.87 1030.13 1030.41 1030.73 1030.97 1031.39 1031.35 1031.45 1031.67 1031.83 1032.27 1032.49 1032.65 1032.63
1022.53 1022.75 1022.95 1023.17 1023.35 1023.63 1023.91 1024.31 1024.69 1024.99 1025.33 1025.75 1025.99 1026.09 1026.45 1026.91 1027.35 1027.79 1028.13 1028.41 1028.59 1028.83 1029.01 1029.09 1029.23 1029.47 1029.71 1029.95 1030.21 1030.53 1030.83 1031.07 1031.45 1031.75 1031.85 1032.05 1032.21 1032.33 1032.57 1032.77 1033.03 1033.19
1022.15 1022.51 1022.81 1023.05 1023.29 1023.65 1024.01 1024.29 1024.59 1024.85 1025.21 1025.61 1026.13 1026.45 1026.53 1026.87 1027.33 1027.73 1028.03 1028.37 1028.63 1028.81 1028.97 1029.19 1029.49 1029.69 1029.93 1030.21 1030.43 1030.75 1031.15 1031.49 1031.97 1032.05 1032.03 1032.29 1032.57 1032.57 1032.73 1032.85 1033.05 1033.25
1021.99 1022.23 1022.43 1022.67 1022.99 1023.33 1023.79 1024.15 1024.49 1024.75 1025.11 1025.57 1025.95 1026.35 1026.55 1026.75 1027.09 1027.49 1027.81 1028.15 1028.53 1028.73 1028.95 1029.29 1029.55 1029.89 1030.05 1030.29 1030.59 1030.87 1031.25 1031.71 1032.19 1032.31 1032.31 1032.47 1032.75 1032.81 1032.87 1032.87 1032.89 1033.11
1021.57 1021.95 1022.27 1022.57 1022.97 1023.25 1023.47 1023.81 1024.19 1024.53 1024.85 1025.17 1025.79 1026.15 1026.51 1026.77 1027.07 1027.41 1027.73 1028.03 1028.39 1028.67 1028.93 1029.25 1029.55 1029.87 1030.17 1030.35 1030.61 1031.03 1031.49 1031.89 1032.33 1032.51 1032.57 1032.77 1032.87 1033.05 1033.13 1032.97 1032.95 1033.11
1021.25 1021.59 1021.95 1022.39 1022.69 1023.03 1023.29 1023.69 1024.17 1024.37 1024.67 1025.25 1025.65 1026.09 1026.33 1026.59 1026.91 1027.31 1027.65 1027.99 1028.29 1028.63 1028.99 1029.33 1029.61 1029.83 1030.17 1030.35 1030.63 1031.13 1031.69 1032.15 1032.45 1032.63 1032.79 1032.91 1032.99 1033.03 1033.23 1033.25 1033.25 1033.29
1021.07 1021.37 1021.73 1022.17 1022.51 1022.85 1023.13 1023.57 1023.99 1024.39 1024.77 1025.01 1025.49 1026.01 1026.41 1026.57 1026.79 1027.13 1027.53 1027.93 1028.27 1028.63 1028.99 1029.33 1029.59 1029.87 1030.17 1030.39 1030.75 1031.11 1031.59 1032.09 1032.37 1032.51 1032.63 1032.73 1032.85 1032.99 1033.17 1033.41 1033.47 1033.51
1020.93 1021.25 1021.61 1021.93 1022.25 1022.59 1022.91 1023.27 1023.73 1024.21 1024.67 1024.99 1025.45 1025.93 1026.21 1026.63 1026.95 1027.15 1027.49 1027.81 1028.17 1028.63 1028.97 1029.25 1029.59 1029.89 1030.17 1030.43 1030.71 1031.03 1031.43 1031.81 1032.13 1032.33 1032.49 1032.59 1032.65 1032.95 1033.17 1033.31 1033.31 1033.47
1020.65 1020.99 1021.35 1021.73 1022.01 1022.41 1022.75 1023.19 1023.57 1024.05 1024.53 1024.85 1025.39 1025.89 1026.25 1026.57 1026.97 1027.21 1027.41 1027.69 1027.99 1028.35 1028.75 1029.11 1029.37 1029.67 1029.95 1030.31 1030.63 1030.91 1031.23 1031.61 1031.93 1032.19 1032.41 1032.55 1032.69 1032.87 1032.99 1033.09 1033.25 1033.05
1020.41 1020.87 1021.19 1021.49 1021.79 1022.21 1022.61 1023.05 1023.47 1023.87 1024.27 1024.73 1025.07 1025.47 1026.03 1026.41 1026.63 1026.97 1027.09 1027.39 1027.77 1028.15 1028.47 1028.83 1029.17 1029.41 1029.67 1029.99 1030.37 1030.79 1031.19 1031.53 1031.79 1032.03 1032.25 1032.47 1032.63 1032.81 1032.93 1033.05 1033.07 1033.17
1020.17 1020.65 1021.03 1021.37 1021.69 1022.05 1022.57 1023.05 1023.35 1023.67 1024.05 1024.43 1024.85 1025.25 1025.67 1026.07 1026.45 1026.63 1026.91 1027.07 1027.49 1027.91 1028.25 1028.55 1028.89 1029.19 1029.49 1029.83 1030.23 1030.65 1031.01 1031.33 1031.65 1031.95 1032.21 1032.47 1032.63 1032.75 1032.87 1032.99 1033.05 1033.17
1019.99 1020.49 1020.87 1021.21 1021.61 1022.07 1022.51 1022.99 1023.35 1023.63 1023.91 1024.31 1024.69 1024.99 1025.29 1025.61 1025.89 1026.17 1026.53 1026.87 1027.21 1027.55 1027.89 1028.21 1028.55 1028.93 1029.27 1029.63 1030.05 1030.45 1030.85 1031.19 1031.49 1031.79 1032.07 1032.37 1032.61 1032.77 1032.85 1032.93 1032.97 1033.05
1019.57 1020.17 1020.67 1021.17 1021.61 1022.07 1022.55 1022.97 1023.43 1023.73 1023.95 1024.23 1024.53 1024.79 1025.09 1025.35 1025.69 1025.99 1026.37 1026.75 1027.15 1027.43 1027.77 1028.09 1028.35 1028.67 1028.99 1029.33 1029.83 1030.33 1030.67 1030.99 1031.31 1031.59 1031.83 1032.13 1032.43 1032.65 1032.79 1032.87 1032.89 1032.91
1019.17 1019.67 1020.19 1020.81 1021.39 1021.79 1022.17 1022.67 1023.11 1023.49 1023.85 1024.19 1024.47 1024.65 1024.85 1025.17 1025.53 1025.87 1026.13 1026.37 1026.79 1027.31 1027.67 1027.99 1028.31 1028.61 1028.91 1029.17 1029.47 1029.85 1030.33 1030.75 1031.13 1031.43 1031.67 1031.95 1032.19 1032.45 1032.65 1032.75 1032.73 1032.73
1018.99 1019.39 1019.85 1020.37 1020.81 1021.35 1021.87 1022.31 1022.73 1023.13 1023.53 1023.85 1024.17 1024.45 1024.73 1025.21 1025.55 1025.87 1026.11 1026.25 1026.57 1026.97 1027.43 1027.83 1028.11 1028.41 1028.69 1028.89 1029.19 1029.65 1030.13 1030.55 1030.89 1031.23 1031.61 1031.85 1032.05 1032.21 1032.29 1032.43 1032.57 1032.59
1018.71 1019.17 1019.59 1019.95 1020.43 1020.89 1021.39 1021.93 1022.37 1022.85 1023.27 1023.65 1024.09 1024.55 1024.89 1025.23 1025.37 1025.61 1025.89 1026.15 1026.53 1026.93 1027.25 1027.53 1027.89 1028.21 1028.41 1028.65 1029.03 1029.45 1029.95 1030.37 1030.69 1031.05 1031.39 1031.63 1031.85 1032.01 1031.99 1032.07 1032.19 1032.35
1018.63 1019.05 1019.43 1019.83 1020.15 1020.47 1020.99 1021.67 1022.17 1022.63 1023.31 1023.87 1024.05 1024.27 1024.75 1025.13 1025.33 1025.67 1025.99 1026.27 1026.51 1026.79 1027.11 1027.47 1027.81 1028.03 1028.21 1028.47 1028.75 1029.09 1029.55 1030.07 1030.47 1030.79 1031.07 1031.33 1031.53 1031.65 1031.71 1031.75 1031.89 1031.99
1018.65 1019.05 1019.37 1019.71 1020.09 1020.55 1020.99 1021.43 1021.93 1022.31 1022.73 1023.33 1023.87 1024.39 1024.77 1025.09 1025.27 1025.47 1025.71 1026.01 1026.33 1026.65 1027.07 1027.45 1027.69 1027.77 1027.89 1028.15 1028.49 1028.85 1029.23 1029.69 1030.19 1030.51 1030.79 1031.01 1031.17 1031.33 1031.41 1031.39 1031.43 1031.61
1018.81 1019.19 1019.57 1020.01 1020.49 1021.03 1021.49 1021.85 1022.15 1022.53 1022.93 1023.37 1023.71 1024.01 1024.35 1024.67 1024.97 1025.27 1025.59 1025.95 1026.27 1026.55 1026.91 1027.23 1027.49 1027.57 1027.69 1027.95 1028.27 1028.61 1028.91 1029.21 1029.81 1030.29 1030.59 1030.77 1030.87 1030.91 1030.95 1030.91 1030.93 1031.15
1018.61 1019.05 1019.49 1019.95 1020.41 1020.95 1021.47 1021.91 1022.33 1022.63 1022.97 1023.39 1023.83 1024.23 1024.55 1024.83 1025.09 1025.29 1025.55 1025.87 1026.21 1026.53 1026.83 1027.17 1027.45 1027.41 1027.47 1027.67 1028.01 1028.35 1028.63 1028.93 1029.39 1029.89 1030.21 1030.41 1030.49 1030.47 1030.41 1030.37 1030.57 1030.73
1018.23 1018.69 1019.25 1019.71 1020.17 1020.63 1021.11 1021.61 1022.09 1022.53 1022.91 1023.31 1023.81 1024.25 1024.61 1024.93 1025.17 1025.37 1025.63 1025.93 1026.25 1026.57 1026.79 1027.11 1027.41 1027.35 1027.31 1027.47 1027.79 1028.11 1028.39 1028.77 1029.09 1029.45 1029.71 1029.89 1029.83 1029.85 1029.83 1029.87 1029.99 1030.09
1018.19 1018.61 1019.13 1019.61 1020.11 1020.43 1020.83 1021.35 1021.83 1022.33 1022.79 1023.15 1023.47 1023.99 1024.39 1024.73 1025.11 1025.53 1025.77 1025.89 1026.11 1026.43 1026.69 1026.97 1027.33 1027.39 1027.33 1027.49 1027.73 1027.91 1028.11 1028.49 1028.77 1028.97 1029.07 1029.23 1029.29 1029.29 1029.37 1029.39 1029.29 1029.47
1018.17 1018.55 1018.93 1019.39 1019.85 1020.27 1020.73 1021.21 1021.61 1022.03 1022.61 1023.05 1023.39 1023.79 1024.21 1024.69 1024.97 1025.25 1025.61 1025.87 1026.03 1026.21 1026.55 1026.81 1027.07 1027.31 1027.41 1027.57 1027.73 1027.81 1027.99 1028.23 1028.45 1028.55 1028.63 1028.65 1028.77 1028.65 1028.65 1028.77 1028.81 1029.07
1018.13 1018.43 1018.83 1019.21 1019.67 1020.21 1020.71 1021.13 1021.63 1022.23 1022.69 1022.99 1023.35 1023.61 1024.03 1024.43 1024.73 1024.97 1025.21 1025.51 1025.85 1026.13 1026.39 1026.61 1026.91 1027.23 1027.41 1027.45 1027.55 1027.65 1027.73 1027.95 1028.15 1028.29 1028.19 1028.15 1028.19 1028.09 1028.07 1028.03 1028.27 1028.51
Wind_Speed
8 8 10 8 9 7 7 8 7 7 7 7 8 9 8 6 7 6 5 5 5 5 6 6 6 6 5 5 5 5 5 5 4 3 5 5 5 7 6 6 5 4
9 9 7 6 5 5 5 5 7 9 10 10 8 8 7 8 7 6 6 6 5 5 5 5 5 6 6 5 5 6 5 4 5 2 5 6 6 6 6 7 6 5
8 9 9 10 8 9 9 7 7 5 6 8 8 8 7 7 8 5 5 5 6 5 5 5 6 5 5 6 5 5 5 5 5 3 4 6 5 5 5 6 5 5
9 10 9 9 8 9 8 8 6 5 5 6 6 7 8 7 7 7 6 5 5 6 5 5 6 5 5 6 5 5 5 4 4 4 5 4 4 5 6 5 5 5
11 10 8 8 6 6 6 8 8 8 9 8 6 6 7 8 8 7 7 6 5 6 5 6 5 5 5 5 5 6 5 5 4 4 5 5 4 5 5 5 6 6
9 9 9 10 9 10 9 9 9 9 9 10 9 7 7 8 8 8 8 8 6 6 6 6 6 5 5 6 5 5 5 5 4 3 4 5 5 3 4 5 6 6
11 10 10 9 9 9 9 9 9 9 9 9 9 8 8 9 9 8 8 7 8 7 7 7 7 6 5 5 5 6 5 5 4 3 4 4 4 5 3 4 5 6
12 10 10 9 10 10 10 10 9 9 9 10 9 7 8 9 9 8 7 8 8 8 7 7 6 7 6 6 6 7 6 3 4 4 4 4 4 4 4 2 4 6
11 11 10 11 11 9 11 10 9 9 9 9 9 8 6 7 8 8 9 8 8 7 8 7 7 7 5 6 6 7 7 5 4 5 6 6 6 5 5 4 4 4
11 10 11 10 10 9 11 11 10 10 10 9 8 7 8 7 7 8 8 9 8 8 7 7 7 6 6 6 7 7 7 7 6 5 5 5 5 6 6 6 6 5
12 11 10 10 10 8 11 10 11 11 9 10 9 8 7 7 7 7 8 8 8 8 8 8 8 8 7 7 6 6 6 6 6 5 5 5 5 5 5 6 6 6
12 11 11 12 12 10 9 10 12 10 10 9 9 10 8 7 8 7 8 8 7 7 7 7 7 7 7 8 7 6 6 6 5 6 5 5 5 6 6 6 6 6
11 11 10 11 10 10 9 9 12 10 10 10 8 9 9 9 8 8 7 8 8 8 8 9 8 8 7 7 7 6 6 6 6 5 5 4 5 5 5 5 5 5
10 9 10 9 9 9 9 10 11 10 9 7 9 12 10 10 10 10 8 7 8 8 8 7 8 7 7 7 7 7 6 6 6 5 5 5 5 4 4 5 6 6
10 9 8 8 9 9 9 10 9 9 10 10 10 10 8 9 9 9 9 8 8 8 8 7 6 6 6 7 7 7 6 6 6 6 5 5 5 5 5 5 6 6
11 11 11 10 10 11 11 10 10 10 10 10 10 10 11 10 10 9 10 10 9 8 7 6 6 6 8 13 11 9 7 6 5 5 5 5 5 4 5 6 6 6
10 11 11 12 12 11 10 11 11 10 10 10 10 8 9 8 9 10 10 10 10 9 9 7 6 6 14 16 15 14 8 7 6 4 5 5 5 6 7 7 6 6
11 11 12 12 12 11 11 10 10 9 9 9 9 8 8 8 10 11 10 9 8 8 9 8 8 10 17 16 15 15 11 7 4 4 4 5 6 6 7 7 8 6
10 11 11 10 11 11 11 10 11 9 8 8 10 8 7 8 10 9 8 8 9 10 9 8 7 13 16 16 16 16 15 10 4 4 4 5 6 6 7 8 7 7
10 9 9 9 9 9 10 11 11 11 11 9 7 7 8 8 9 10 8 9 9 8 8 7 8 13 17 17 16 16 16 12 6 5 5 5 7 7 8 8 8 6
8 7 7 6 6 5 6 6 8 8 9 9 8 9 9 9 9 8 7 7 7 7 8 8 7 14 16 17 16 17 16 12 5 5 5 5 7 7 8 9 10 8
9 9 8 8 8 8 8 8 7 8 8 6 6 5 4 4 4 5 7 8 7 6 6 6 6 15 16 17 17 16 16 8 5 5 6 7 8 8 8 9 8 7
11 11 9 9 10 10 10 10 10 8 7 6 6 5 5 4 4 4 4 5 6 6 6 5 5 12 16 16 17 17 11 5 6 5 6 9 10 10 9 9 7 9
9 9 10 9 9 10 10 8 8 6 7 7 8 7 7 6 5 4 4 5 6 7 7 6 5 8 14 15 15 15 11 7 6 7 8 9 10 9 8 10 11 11
8 9 10 10 10 9 9 10 10 9 7 7 7 6 7 6 6 6 6 5 6 8 8 8 7 7 12 13 14 14 11 7 7 9 10 10 9 10 10 8 10 10
8 9 9 10 10 8 8 8 7 8 8 8 7 7 7 7 7 7 9 8 7 6 6 6 6 5 8 14 14 14 16 9 7 10 11 10 10 9 10 10 9 10
Wind_Direction
175 176 180 181 186 182 173 169 180 167 158 168 167 165 173 160 152 171 162 152 154 140 142 141 137 132 126 124 120 116 118 116 109 129 125 119 113 116 112 119 112 115
180 178 180 180 177 175 189 188 177 172 162 173 173 154 146 145 151 160 156 147 139 134 130 131 124 121 121 118 115 113 109 115 110 83 119 113 119 115 117 121 119 127
177 179 182 185 183 181 183 177 179 187 157 161 148 149 144 142 142 149 145 141 137 132 130 122 115 110 109 107 108 112 119 120 112 115 114 119 120 117 117 120 119 126
182 186 185 186 182 181 174 165 166 146 113 131 170 151 142 144 138 141 136 140 136 134 125 115 113 111 108 110 112 111 111 100 102 121 114 103 106 117 123 118 111 111
181 180 181 181 175 165 162 170 170 162 160 138 125 150 142 142 141 143 144 138 142 136 128 118 112 113 115 114 118 116 110 109 121 134 125 119 125 126 129 128 126 118
182 183 182 180 175 167 169 177 175 168 159 147 162 151 154 144 146 151 149 146 144 136 128 122 121 119 122 120 120 113 119 123 131 131 122 120 124 118 128 131 127 123
180 178 181 175 168 172 173 175 170 169 170 154 134 161 152 153 153 152 149 146 140 139 135 136 133 130 127 126 119 116 108 113 118 119 118 115 118 120 125 131 131 129
181 180 177 174 174 173 175 171 172 175 156 140 165 153 160 157 154 148 146 145 142 137 136 137 136 132 131 127 125 119 112 109 127 128 129 130 135 141 148 141 134 134
179 180 174 177 177 177 176 171 172 152 144 153 156 155 158 160 155 149 147 142 138 139 140 140 142 136 132 127 124 128 134 143 150 154 157 161 168 171 160 145 144 146
183 180 177 177 178 178 178 174 158 146 148 151 150 149 155 149 145 144 140 145 140 143 146 142 140 138 134 135 137 144 150 158 162 166 172 181 170 164 162 166 162 155
185 181 179 179 180 175 179 167 149 149 154 153 146 151 152 145 143 145 144 147 152 155 153 152 151 147 145 143 145 150 155 156 162 166 175 181 184 176 170 170 174 179
187 182 185 183 180 177 173 158 153 156 154 151 156 151 149 158 152 158 161 156 151 153 151 149 151 153 152 152 148 145 146 156 165 174 172 178 181 184 180 185 176 176
186 184 183 182 181 176 168 160 158 156 155 157 160 153 156 159 163 158 167 158 155 153 158 157 156 154 155 148 142 144 152 158 168 174 175 178 187 184 186 185 186 184
181 179 183 179 174 170 165 165 158 151 158 153 161 167 168 169 167 169 162 159 156 159 156 154 153 152 149 144 145 151 154 160 166 171 176 180 181 191 193 196 197 199
170 170 171 168 165 163 167 169 168 168 170 168 171 172 174 173 171 167 156 158 160 163 155 156 154 156 153 153 144 154 159 159 165 173 178 179 182 192 203 206 208 206
170 167 168 164 165 171 174 170 169 172 169 171 176 179 177 174 170 169 167 165 159 155 153 153 155 164 163 163 164 159 157 153 150 169 179 187 187 188 211 217 217 210
170 172 166 170 174 171 170 170 170 173 177 177 178 179 172 164 164 166 177 175 168 162 159 162 162 164 167 172 171 168 155 159 172 168 173 188 200 203 216 217 218 213
173 170 172 173 168 173 172 174 170 171 174 176 173 171 174 170 175 180 177 169 165 162 169 170 170 168 173 174 174 170 166 168 164 160 169 189 204 214 223 224 218 213
168 171 173 173 177 174 171 167 171 169 163 170 182 179 163 171 179 169 173 170 169 171 174 169 163 172 174 175 176 177 177 170 162 168 171 194 207 212 225 227 227 220
167 169 174 176 176 172 168 169 171 173 172 171 163 161 172 178 177 180 176 173 174 173 164 162 169 180 180 177 176 179 183 177 178 179 191 202 208 210 225 228 226 215
158 163 165 161 154 148 160 165 164 164 162 168 174 178 178 181 179 175 174 172 173 169 169 176 180 181 179 176 178 183 187 183 167 176 194 214 217 213 225 231 233 226
157 160 156 154 151 149 154 159 159 167 166 159 155 152 153 150 162 166 171 174 171 168 164 174 179 183 181 179 181 185 186 185 175 180 203 220 227 222 226 234 232 218
163 160 160 158 158 158 163 162 162 164 158 143 143 145 148 160 163 169 155 152 155 162 170 179 179 190 187 184 185 185 182 189 197 199 213 223 233 231 232 233 223 215
157 154 154 158 159 168 166 157 150 146 145 149 153 152 159 161 152 144 151 158 165 174 181 182 187 199 194 191 191 188 184 193 206 216 230 228 240 238 235 238 233 216
153 154 156 160 165 164 157 154 158 157 149 150 153 154 160 152 160 165 173 180 181 185 177 181 186 191 199 201 200 200 198 207 214 233 238 238 238 245 241 235 242 229
158 158 158 160 159 149 151 150 139 136 153 161 163 165 165 169 173 178 183 192 187 180 183 179 175 183 198 208 211 212 215 213 222 231 240 241 241 246 252 245 238 240